Weather History for Doylestown, PA

Change the Weather History Date:

Wednesday, February 6, 2013

  Actual Average (KTTN) Record (KTTN)
Temperature  
Mean Temperature 30 °F 32 °F  
Max Temperature 37 °F 40 °F 64 °F (1938)
Min Temperature 24 °F 25 °F -4 °F (1895)
Degree Days  
Heating Degree Days 34 33  
Month to date heating degree days 198  
Since 1 July heating degree days 3144  
Cooling Degree Days 0 0  
Month to date cooling degree days 0  
Year to date cooling degree days 0  
Moisture  
Dew Point 22 °F    
Average Humidity 72    
Maximum Humidity 100    
Minimum Humidity 48    
Precipitation  
Precipitation 0.02 in 0.07 in 1.79 in (1896)
Month to date precipitation 0.42  
Year to date precipitation 3.58  
Snow  
Snow 0.00 in - - ()
Month to date snowfall  
Since 1 July snowfall  
Snow Depth -    
Sea Level Pressure  
Sea Level Pressure 30.13 in    
Wind  
Wind Speed 3 mph (WNW)    
Max Wind Speed 17 mph    
Max Gust Speed 25 mph    
Visibility 8 miles    
Events Snow    
T = Trace of Precipitation, MM = Missing Value Source: NWS Daily Summary

Daily Weather History Graph

Daily Weather History Graph

Search for Another Location

Airport:

Trip Planner

Search our weather history database for the weather conditions in past years. The results will help you decide how hot, cold, wet, or windy it might be!

Date:

Astronomy

Feb. 06, 2013 Rise Set
Actual Time 7:04 AM EST 5:25 PM EST
Civil Twilight 6:35 AM EST 5:53 PM EST
Nautical Twilight 6:03 AM EST 6:26 PM EST
Astronomical Twilight 5:31 AM EST 6:57 PM EST
Moon 3:45 AM EST (2/6) 1:40 PM EST (2/6)
Length of Visible Light 11h 17m
Length of Day
10h 21m
Waning Crescent, 17% of the Moon is Illuminated
Feb 6
Waning Crescent
Feb 10
New
Feb 17
First Quarter
Feb 25
Full
Mar 4
Last Quarter

Hourly Weather History & Observations

Time (EST) Temp. Windchill Dew Point Humidity Pressure Visibility Wind Dir Wind Speed Gust Speed Precip Events Conditions
12:54 AM 28.9 °F - 28.0 °F 96% 29.94 in 4.0 mi Calm Calm - 0.00 in Snow Light Snow
1:09 AM 28.4 °F - 28.4 °F 100% 29.91 in 5.0 mi Calm Calm - N/A   Overcast
1:34 AM 28.4 °F - 26.6 °F 93% 29.92 in 5.0 mi Calm Calm - N/A   Overcast
2:18 AM 28.4 °F - 26.6 °F 93% 29.91 in 4.0 mi Calm Calm - N/A   Scattered Clouds
2:54 AM 27.0 °F - 25.0 °F 92% 29.94 in 3.0 mi Calm Calm - N/A   Clear
3:54 AM 26.1 °F 21.9 °F 24.1 °F 92% 29.96 in 4.0 mi West 3.5 mph - N/A   Clear
4:54 AM 26.1 °F - 24.1 °F 92% 29.98 in 6.0 mi Calm Calm - N/A   Scattered Clouds
5:54 AM 25.0 °F 19.3 °F 23.0 °F 92% 30.02 in 6.0 mi WNW 4.6 mph - N/A   Mostly Cloudy
6:54 AM 27.0 °F 21.6 °F 21.9 °F 81% 30.04 in 10.0 mi West 4.6 mph - N/A   Scattered Clouds
7:54 AM 27.0 °F - 21.9 °F 81% 30.10 in 9.0 mi Calm Calm - N/A   Mostly Cloudy
8:54 AM 32.0 °F 24.8 °F 23.0 °F 69% 30.11 in 10.0 mi West 8.1 mph - N/A   Mostly Cloudy
9:54 AM 32.0 °F 24.2 °F 23.0 °F 69% 30.13 in 10.0 mi WNW 9.2 mph - 0.01 in   Overcast
10:54 AM 36.0 °F 28.5 °F 25.0 °F 64% 30.15 in 10.0 mi WNW 10.4 mph 16.1 mph 0.01 in   Mostly Cloudy
12:54 PM 36.0 °F 29.0 °F 21.9 °F 57% 30.14 in 10.0 mi West 9.2 mph 19.6 mph N/A   Overcast
1:54 PM 37.0 °F 29.3 °F 21.0 °F 52% 30.16 in 10.0 mi NW 11.5 mph 18.4 mph N/A   Overcast
2:54 PM 37.9 °F 29.2 °F 19.9 °F 48% 30.17 in 10.0 mi WNW 15.0 mph 23.0 mph N/A   Partly Cloudy
3:54 PM 37.0 °F 27.4 °F 19.9 °F 50% 30.19 in 10.0 mi WNW 17.3 mph 25.3 mph N/A   Clear
4:54 PM 36.0 °F 29.0 °F 19.0 °F 50% 30.21 in 10.0 mi WNW 9.2 mph 17.3 mph N/A   Clear
5:54 PM 33.1 °F 25.5 °F 18.0 °F 54% 30.25 in 10.0 mi WNW 9.2 mph - N/A   Clear
6:54 PM 30.9 °F 26.2 °F 19.0 °F 61% 30.28 in 10.0 mi WNW 4.6 mph - N/A   Clear
7:54 PM 30.9 °F 27.5 °F 18.0 °F 59% 30.30 in 10.0 mi NW 3.5 mph - N/A   Clear
8:54 PM 28.0 °F 22.8 °F 16.0 °F 61% 30.32 in 10.0 mi North 4.6 mph - N/A   Clear
9:54 PM 26.1 °F - 16.0 °F 66% 30.34 in 10.0 mi Calm Calm - N/A   Clear
10:54 PM 24.1 °F - 15.1 °F 69% 30.36 in 10.0 mi Calm Calm - N/A   Clear
11:54 PM 24.1 °F - 14.0 °F 65% 30.36 in 10.0 mi Calm Calm - N/A   Clear